Flight Information

DEPARTURE
MOJAVE, CA
Elevation:
2801
Runways:
12/30 - 12503x200 - ASPH-E
8/26 - 7049x100 - ASPH-G
4/22 - 4747x60 - ASPH-E
Ground:
123.9
Tower:
127.6
DESTINATION
,
Elevation:
TPA:
1000 (est.)


6762.8 NM73° True-14° Var58° HDG

Flight Plan:
(click to file on line)

1. Type
2. Aircraft Identification
3. Aircraft Type / Special Equipment
4. True Airspeed
kts
5. Departure Airport
(ICAO code)
6. Arriving Airport
(ICAO code)
7. Cruising Altitude
ft
8. Alternate Airport
(ICAO code)
9. Route of Flight
10. Remarks


00:00:00 Departure ATIS: Destination ATIS:

Clearance Limit:
Route:
Altitude: Expect in minutes
Frequency:
Transponder: (7500 Hijack / 7600 Lost Comms / 7700 Emergency)


KMHV 251920Z AUTO 23015G26KT 210V270 10SM BKN029 BKN034 02/M04 A2963 RMK A01
Time: 2021-01-25T19:20:00Z
1611603738
Winds: 230 @ 15 kts
Gusting:26 kts
Visibility: 10.0 sm
Clouds (AGL): BKN 2900
BKN 3400
Temperature: 2.0 C
Dew Point: -4.0 C
Pressure: 29.630905 in Hgbr


Notes:

Data extracted from FAA Digital Chart Supplement. Effective: 0901Z Thursday, Dec 31, 2020 to 0901Z Thursday, Jan 28, 2021
Current ATIS data is provided courtisy of PilotEdge.